UAL1704 KDEN-CYEG

Flight info

Callsign UAL1704
Flight time N/A
Altitude 36000
Route XXWNG1 XXWNG DCT CZI DCT KU12S DCT VINKO DCT CAMRA IGSOX3
Aircraft B738/M-SDE2E3FGHIRWXY/LB1

Departure

Time N/A
Airport Denver International Airport (KDEN)

Arrival

Time 2026-04-29 19:22
Airport Edmonton International Airport (CYEG)
Time Latitude Longitude Altitude Speed Heading
2026-04-29 17:48 44.78617 -106.82892 36188 ft 423 kts 337°
2026-04-29 17:49 44.84211 -106.85732 36190 ft 423 kts 337°
2026-04-29 17:49 44.89762 -106.88555 36183 ft 423 kts 337°
2026-04-29 17:50 44.95278 -106.91366 36194 ft 422 kts 337°
2026-04-29 17:50 45.00812 -106.94193 36187 ft 422 kts 337°
2026-04-29 17:51 45.06321 -106.97012 36192 ft 422 kts 337°
2026-04-29 17:51 45.11830 -106.99837 36195 ft 421 kts 337°
2026-04-29 17:52 45.17365 -107.02682 36197 ft 421 kts 337°
2026-04-29 17:52 45.22865 -107.05514 36199 ft 421 kts 337°
2026-04-29 17:53 45.28382 -107.08361 36199 ft 421 kts 337°
2026-04-29 17:53 45.33883 -107.11206 36197 ft 422 kts 337°
2026-04-29 17:54 45.39410 -107.14069 36194 ft 422 kts 337°
2026-04-29 17:54 45.44941 -107.16941 36209 ft 422 kts 337°
2026-04-29 17:55 45.50460 -107.19813 36202 ft 422 kts 337°
2026-04-29 17:55 45.55965 -107.22683 36203 ft 422 kts 337°
2026-04-29 17:56 45.61470 -107.25559 36205 ft 422 kts 337°
2026-04-29 17:56 45.67028 -107.28470 36206 ft 422 kts 337°
2026-04-29 17:57 45.72518 -107.31351 36208 ft 423 kts 337°
2026-04-29 17:57 45.78062 -107.34265 36209 ft 423 kts 337°
2026-04-29 17:58 45.83563 -107.37164 36210 ft 423 kts 337°
2026-04-29 17:58 45.89094 -107.40085 36211 ft 423 kts 337°
2026-04-29 17:59 45.94630 -107.43015 36212 ft 423 kts 337°
2026-04-29 17:59 46.00150 -107.45941 36214 ft 424 kts 337°
2026-04-29 18:00 46.04790 -107.48407 36211 ft 424 kts 337°
2026-04-29 18:00 46.11234 -107.51838 36208 ft 425 kts 337°
2026-04-29 18:01 46.16795 -107.54806 36219 ft 424 kts 337°
2026-04-29 18:01 46.22357 -107.57781 36219 ft 424 kts 337°
2026-04-29 18:02 46.27892 -107.60748 36222 ft 424 kts 337°
2026-04-29 18:02 46.33438 -107.63727 36221 ft 424 kts 337°
2026-04-29 18:03 46.38944 -107.66692 36228 ft 424 kts 337°
2026-04-29 18:03 46.44489 -107.69683 36226 ft 424 kts 337°
2026-04-29 18:04 46.50047 -107.72689 36230 ft 424 kts 338°
2026-04-29 18:04 46.55576 -107.75685 36239 ft 424 kts 338°
2026-04-29 18:05 46.61121 -107.78696 36237 ft 425 kts 338°
2026-04-29 18:05 46.66656 -107.81709 36232 ft 425 kts 338°
2026-04-29 18:06 46.72222 -107.84745 36237 ft 425 kts 338°
2026-04-29 18:06 46.77767 -107.87776 36234 ft 425 kts 338°
2026-04-29 18:07 46.83279 -107.90796 36242 ft 425 kts 338°
2026-04-29 18:07 46.87913 -107.93340 36237 ft 426 kts 338°
2026-04-29 18:08 46.93469 -107.96397 36240 ft 426 kts 338°
2026-04-29 18:08 46.99003 -107.99447 36241 ft 426 kts 338°
2026-04-29 18:09 47.04617 -108.02277 36243 ft 427 kts 341°
2026-04-29 18:09 47.10276 -108.04861 36244 ft 427 kts 341°
2026-04-29 18:10 47.15988 -108.07470 36248 ft 428 kts 341°
2026-04-29 18:10 47.21665 -108.10102 36247 ft 428 kts 341°
2026-04-29 18:11 47.27317 -108.12747 36245 ft 428 kts 341°
2026-04-29 18:11 47.33022 -108.15428 36242 ft 428 kts 341°
2026-04-29 18:12 47.38679 -108.18093 36252 ft 428 kts 341°
2026-04-29 18:12 47.44348 -108.20769 36247 ft 427 kts 341°
2026-04-29 18:13 47.50037 -108.23461 36244 ft 427 kts 341°
2026-04-29 18:13 47.55685 -108.26139 36256 ft 426 kts 341°
2026-04-29 18:14 47.61318 -108.28816 36249 ft 426 kts 341°
2026-04-29 18:14 47.66981 -108.31513 36250 ft 426 kts 341°
2026-04-29 18:15 47.72613 -108.34203 36257 ft 425 kts 341°
2026-04-29 18:15 47.78243 -108.36896 36258 ft 425 kts 341°
2026-04-29 18:16 47.83870 -108.39595 36258 ft 424 kts 341°
2026-04-29 18:16 47.89484 -108.42294 36260 ft 424 kts 341°
2026-04-29 18:17 47.95097 -108.44998 36259 ft 424 kts 341°
2026-04-29 18:17 48.00709 -108.47708 36271 ft 424 kts 341°
2026-04-29 18:18 48.06343 -108.50434 36266 ft 425 kts 341°
2026-04-29 18:18 48.11948 -108.53154 36271 ft 425 kts 341°
2026-04-29 18:19 48.17581 -108.55893 36272 ft 425 kts 341°
2026-04-29 18:19 48.23202 -108.58632 36275 ft 425 kts 341°
2026-04-29 18:20 48.28850 -108.61391 36271 ft 425 kts 341°
2026-04-29 18:20 48.34467 -108.64141 36271 ft 425 kts 341°
2026-04-29 18:21 48.40115 -108.66913 36272 ft 425 kts 341°
2026-04-29 18:21 48.45741 -108.69680 36271 ft 425 kts 341°
2026-04-29 18:22 48.51350 -108.72446 36269 ft 425 kts 341°
2026-04-29 18:22 48.56963 -108.75220 36270 ft 425 kts 341°
2026-04-29 18:23 48.62584 -108.78004 36268 ft 424 kts 341°
2026-04-29 18:23 48.68168 -108.80777 36270 ft 424 kts 341°
2026-04-29 18:24 48.73787 -108.83573 36272 ft 424 kts 341°
2026-04-29 18:24 48.79374 -108.86360 36267 ft 423 kts 341°
2026-04-29 18:25 48.84986 -108.89166 36269 ft 423 kts 341°
2026-04-29 18:25 48.90562 -108.91961 36267 ft 423 kts 341°
2026-04-29 18:26 48.96152 -108.94770 36260 ft 423 kts 341°
2026-04-29 18:26 49.01773 -108.97600 36268 ft 423 kts 341°
2026-04-29 18:27 49.07374 -109.00427 36264 ft 423 kts 341°
2026-04-29 18:27 49.12960 -109.03254 36260 ft 423 kts 341°
2026-04-29 18:28 49.18539 -109.06083 36264 ft 423 kts 341°
2026-04-29 18:28 49.24108 -109.08915 36262 ft 423 kts 341°
2026-04-29 18:29 49.29720 -109.11775 36263 ft 422 kts 341°
2026-04-29 18:29 49.35289 -109.14620 36264 ft 422 kts 341°
2026-04-29 18:30 49.40887 -109.17486 36268 ft 422 kts 341°
2026-04-29 18:30 49.46427 -109.20330 36264 ft 421 kts 341°
2026-04-29 18:31 49.51995 -109.23195 36266 ft 421 kts 341°
2026-04-29 18:31 49.57551 -109.26060 36276 ft 421 kts 341°
2026-04-29 18:32 49.63108 -109.28933 36274 ft 421 kts 341°
2026-04-29 18:32 49.71420 -109.33243 36280 ft 420 kts 341°
2026-04-29 18:33 49.77059 -109.36176 36288 ft 420 kts 341°
2026-04-29 18:33 49.82600 -109.39065 36287 ft 420 kts 341°
2026-04-29 18:34 49.86310 -109.41004 36291 ft 420 kts 341°
2026-04-29 18:34 49.93712 -109.44880 36286 ft 419 kts 341°
2026-04-29 18:35 49.99239 -109.47783 36290 ft 419 kts 341°
2026-04-29 18:35 50.04766 -109.50693 36290 ft 418 kts 341°
2026-04-29 18:36 50.09357 -109.53116 36286 ft 418 kts 341°
2026-04-29 18:36 50.14857 -109.56024 36288 ft 418 kts 341°
2026-04-29 18:37 50.20351 -109.58937 36290 ft 417 kts 341°
2026-04-29 18:37 50.21079 -109.59323 36288 ft 417 kts 341°
2026-04-29 18:38 50.26564 -109.62239 36289 ft 417 kts 341°
2026-04-29 18:38 50.32069 -109.65173 36284 ft 416 kts 341°
2026-04-29 18:39 50.37541 -109.68096 36283 ft 416 kts 341°
2026-04-29 18:39 50.43043 -109.71043 36283 ft 416 kts 341°
2026-04-29 18:40 50.48538 -109.73992 36281 ft 416 kts 341°
2026-04-29 18:40 50.54011 -109.76938 36281 ft 416 kts 341°
2026-04-29 18:41 50.64963 -109.82853 36280 ft 416 kts 341°
2026-04-29 18:42 50.70457 -109.85832 36281 ft 415 kts 341°
2026-04-29 18:42 50.75901 -109.88791 36279 ft 415 kts 341°
2026-04-29 18:43 50.81389 -109.91782 36277 ft 415 kts 341°
2026-04-29 18:43 50.86854 -109.94767 36279 ft 415 kts 341°
2026-04-29 18:44 50.92303 -109.97750 36274 ft 415 kts 341°
2026-04-29 18:44 50.97612 -110.01336 36270 ft 416 kts 330°
2026-04-29 18:45 51.02353 -110.06657 36273 ft 417 kts 325°
2026-04-29 18:45 51.07044 -110.12141 36273 ft 416 kts 326°
2026-04-29 18:46 51.11696 -110.17554 36270 ft 416 kts 326°
2026-04-29 18:46 51.16396 -110.23001 36273 ft 416 kts 326°
2026-04-29 18:47 51.21091 -110.28441 36273 ft 416 kts 326°
2026-04-29 18:47 51.25752 -110.33853 36272 ft 416 kts 326°
2026-04-29 18:48 51.30448 -110.39320 36271 ft 416 kts 326°
2026-04-29 18:48 51.35135 -110.44791 36273 ft 416 kts 326°
2026-04-29 18:49 51.39799 -110.50249 36273 ft 416 kts 326°
2026-04-29 18:49 51.44481 -110.55743 36270 ft 416 kts 326°
2026-04-29 18:50 51.49146 -110.61231 36278 ft 415 kts 326°
2026-04-29 18:50 51.53779 -110.66695 36270 ft 415 kts 326°
2026-04-29 18:51 51.58449 -110.72217 36275 ft 415 kts 326°
2026-04-29 18:51 51.63111 -110.77744 36275 ft 415 kts 326°
2026-04-29 18:52 51.67762 -110.83273 36279 ft 415 kts 326°
2026-04-29 18:52 51.72422 -110.88826 36275 ft 414 kts 326°
2026-04-29 18:53 51.77040 -110.94346 36265 ft 409 kts 326°
2026-04-29 18:53 51.81600 -110.99810 36272 ft 404 kts 326°
2026-04-29 18:54 51.86109 -111.05225 35891 ft 402 kts 326°
2026-04-29 18:54 51.88363 -111.07940 35479 ft 397 kts 326°
2026-04-29 18:54 51.90573 -111.10603 35112 ft 393 kts 326°
2026-04-29 18:55 51.92784 -111.13272 34729 ft 390 kts 326°
2026-04-29 18:55 51.94948 -111.15887 34343 ft 386 kts 326°
2026-04-29 18:55 51.97099 -111.18488 33892 ft 383 kts 327°
2026-04-29 18:55 51.99224 -111.21061 33477 ft 379 kts 327°
2026-04-29 18:56 52.01355 -111.23645 33091 ft 375 kts 327°
2026-04-29 18:56 52.03427 -111.26161 32712 ft 371 kts 327°
2026-04-29 18:56 52.05502 -111.28683 32329 ft 368 kts 327°
2026-04-29 18:56 52.07521 -111.31140 31953 ft 364 kts 327°
2026-04-29 18:57 52.09549 -111.33609 31585 ft 361 kts 327°
2026-04-29 18:57 52.11572 -111.36076 31216 ft 358 kts 327°
2026-04-29 18:57 52.13557 -111.38500 30857 ft 355 kts 327°
2026-04-29 18:57 52.15529 -111.40910 30500 ft 353 kts 327°
2026-04-29 18:58 52.17483 -111.43301 30107 ft 350 kts 327°
2026-04-29 18:58 52.19424 -111.45678 29723 ft 347 kts 327°
2026-04-29 18:58 52.21331 -111.48017 29341 ft 343 kts 327°
2026-04-29 18:58 52.22601 -111.49577 29114 ft 340 kts 327°
2026-04-29 18:59 52.25114 -111.52665 28621 ft 336 kts 327°
2026-04-29 18:59 52.26344 -111.54179 28375 ft 334 kts 327°
2026-04-29 18:59 52.28195 -111.56457 28021 ft 331 kts 327°
2026-04-29 18:59 52.30024 -111.58712 27672 ft 328 kts 327°
2026-04-29 19:00 52.31834 -111.60945 27339 ft 325 kts 327°
2026-04-29 19:00 52.33635 -111.63170 26993 ft 322 kts 327°
2026-04-29 19:00 52.35416 -111.65371 26649 ft 320 kts 326°
2026-04-29 19:00 52.37179 -111.67553 26300 ft 318 kts 326°
2026-04-29 19:01 52.38969 -111.69771 25967 ft 316 kts 326°
2026-04-29 19:01 52.40722 -111.71943 25632 ft 316 kts 326°
2026-04-29 19:01 52.42478 -111.74123 25295 ft 316 kts 326°
2026-04-29 19:01 52.44244 -111.76316 24962 ft 323 kts 326°
2026-04-29 19:02 52.46064 -111.78576 24615 ft 331 kts 326°
2026-04-29 19:02 52.47896 -111.80856 24236 ft 331 kts 326°
2026-04-29 19:02 52.49724 -111.83137 23879 ft 329 kts 326°
2026-04-29 19:02 52.51550 -111.85418 23462 ft 328 kts 326°
2026-04-29 19:03 52.53360 -111.87682 23071 ft 325 kts 326°
2026-04-29 19:03 52.55153 -111.89926 22699 ft 323 kts 326°
2026-04-29 19:03 52.56936 -111.92161 22358 ft 319 kts 326°
2026-04-29 19:03 52.58705 -111.94378 21992 ft 317 kts 326°
2026-04-29 19:04 52.60451 -111.96569 21657 ft 314 kts 326°
2026-04-29 19:04 52.62185 -111.98748 21308 ft 312 kts 326°
2026-04-29 19:04 52.63910 -112.00916 20972 ft 310 kts 326°
2026-04-29 19:04 52.65616 -112.03064 20634 ft 308 kts 326°
2026-04-29 19:05 52.67340 -112.05236 20291 ft 306 kts 326°
2026-04-29 19:05 52.69025 -112.07362 19961 ft 304 kts 326°
2026-04-29 19:05 52.70703 -112.09479 19632 ft 303 kts 325°
2026-04-29 19:05 52.72374 -112.11590 19303 ft 301 kts 325°
2026-04-29 19:06 52.74053 -112.13715 18968 ft 300 kts 325°
2026-04-29 19:06 52.75706 -112.15807 18637 ft 299 kts 325°
2026-04-29 19:06 52.79000 -112.19984 17917 ft 296 kts 325°
2026-04-29 19:07 52.80614 -112.22094 17553 ft 296 kts 319°
2026-04-29 19:07 52.81508 -112.23851 17211 ft 302 kts 307°
2026-04-29 19:07 52.82932 -112.27949 16409 ft 313 kts 301°
2026-04-29 19:07 52.83934 -112.31147 15831 ft 318 kts 300°
2026-04-29 19:08 52.84937 -112.34396 15450 ft 317 kts 300°
2026-04-29 19:08 52.85943 -112.37651 15093 ft 315 kts 300°
2026-04-29 19:08 52.86941 -112.40864 14732 ft 313 kts 300°
2026-04-29 19:08 52.87941 -112.44066 14405 ft 312 kts 300°
2026-04-29 19:09 52.88946 -112.47274 14053 ft 310 kts 300°
2026-04-29 19:09 52.89932 -112.50417 13660 ft 301 kts 300°
2026-04-29 19:09 52.90882 -112.53449 13311 ft 292 kts 300°
2026-04-29 19:09 52.91806 -112.56394 13026 ft 282 kts 300°
2026-04-29 19:10 52.92694 -112.59225 12706 ft 273 kts 300°
2026-04-29 19:10 52.93560 -112.61988 12426 ft 265 kts 301°
2026-04-29 19:10 52.94394 -112.64651 12158 ft 260 kts 301°
2026-04-29 19:10 52.95244 -112.67357 11869 ft 265 kts 301°
2026-04-29 19:11 52.96105 -112.70101 11586 ft 271 kts 300°
2026-04-29 19:11 52.96995 -112.72942 11291 ft 276 kts 300°
2026-04-29 19:11 52.97875 -112.75760 10977 ft 275 kts 300°
2026-04-29 19:11 52.98738 -112.78529 10681 ft 273 kts 300°
2026-04-29 19:12 52.99622 -112.81371 10379 ft 271 kts 300°
2026-04-29 19:12 53.00478 -112.84129 10204 ft 265 kts 300°
2026-04-29 19:12 53.01320 -112.86843 10080 ft 257 kts 300°
2026-04-29 19:12 53.01857 -112.88573 9930 ft 255 kts 300°
2026-04-29 19:13 53.02946 -112.92084 9573 ft 251 kts 300°
2026-04-29 19:13 53.03783 -112.94785 9279 ft 250 kts 300°
2026-04-29 19:13 53.04322 -112.96525 9087 ft 249 kts 300°
2026-04-29 19:13 53.05368 -112.99912 8739 ft 247 kts 300°
2026-04-29 19:14 53.05902 -113.01637 8561 ft 247 kts 300°
2026-04-29 19:14 53.06682 -113.04162 8289 ft 247 kts 300°
2026-04-29 19:14 53.07461 -113.06690 8009 ft 246 kts 300°
2026-04-29 19:14 53.07984 -113.08386 7841 ft 245 kts 300°
2026-04-29 19:15 53.08358 -113.09604 7711 ft 245 kts 300°
2026-04-29 19:15 53.09136 -113.12133 7444 ft 243 kts 300°
2026-04-29 19:15 53.09896 -113.14610 7179 ft 242 kts 300°
2026-04-29 19:16 53.10655 -113.17086 7039 ft 236 kts 300°
2026-04-29 19:16 53.11393 -113.19497 6902 ft 229 kts 300°
2026-04-29 19:16 53.12101 -113.21809 6800 ft 221 kts 300°
2026-04-29 19:16 53.12787 -113.24049 6709 ft 215 kts 300°
2026-04-29 19:17 53.13464 -113.26261 6638 ft 211 kts 300°
2026-04-29 19:17 53.14135 -113.28456 6411 ft 213 kts 299°
2026-04-29 19:17 53.14811 -113.30671 6181 ft 214 kts 299°
2026-04-29 19:17 53.15482 -113.32873 5934 ft 215 kts 299°
2026-04-29 19:18 53.16186 -113.35092 5669 ft 216 kts 305°
2026-04-29 19:18 53.16811 -113.36397 5489 ft 215 kts 314°
2026-04-29 19:18 53.18212 -113.38761 5167 ft 207 kts 316°
2026-04-29 19:18 53.19176 -113.40360 5025 ft 188 kts 315°
2026-04-29 19:19 53.20103 -113.41912 4836 ft 189 kts 315°
2026-04-29 19:19 53.21022 -113.43457 4585 ft 186 kts 315°
2026-04-29 19:19 53.21904 -113.44940 4338 ft 171 kts 315°
2026-04-29 19:19 53.22702 -113.46281 4117 ft 152 kts 315°
2026-04-29 19:20 53.23406 -113.47464 3908 ft 142 kts 316°
2026-04-29 19:20 53.24106 -113.48638 3720 ft 141 kts 316°
2026-04-29 19:20 53.24796 -113.49796 3545 ft 143 kts 315°
2026-04-29 19:20 53.25502 -113.50916 3368 ft 135 kts 317°
2026-04-29 19:21 53.26177 -113.52064 3137 ft 140 kts 313°
2026-04-29 19:21 53.26843 -113.53278 2924 ft 144 kts 315°
2026-04-29 19:21 53.27570 -113.54452 2728 ft 148 kts 319°
2026-04-29 19:21 53.28277 -113.55642 2553 ft 140 kts 318°
2026-04-29 19:22 53.28936 -113.56758 2397 ft 130 kts 319°
2026-04-29 19:22 53.29517 -113.57708 2383 ft 95 kts 316°
2026-04-29 19:22 53.29894 -113.58331 2382 ft 60 kts 316°
2026-04-29 19:22 53.30158 -113.58763 2386 ft 32 kts 316°
2026-04-29 19:23 53.30356 -113.58852 2385 ft 29 kts
2026-04-29 19:23 53.30487 -113.58810 2389 ft 10 kts 42°
2026-04-29 19:23 53.30544 -113.58742 2383 ft 10 kts 36°
2026-04-29 19:23 53.30568 -113.58647 2383 ft 10 kts 114°
2026-04-29 19:24 53.30529 -113.58560 2383 ft 9 kts 134°
2026-04-29 19:24 53.30484 -113.58482 2387 ft 9 kts 134°
2026-04-29 19:24 53.30440 -113.58406 2386 ft 9 kts 140°
2026-04-29 19:24 53.30395 -113.58338 2386 ft 9 kts 134°
2026-04-29 19:25 53.30353 -113.58265 2383 ft 8 kts 127°
2026-04-29 19:25 53.30345 -113.58189 2383 ft 4 kts 67°
2026-04-29 19:25 53.30349 -113.58182 2383 ft 0 kts 55°
2026-04-29 19:26 53.30376 -113.58137 2386 ft 7 kts 45°
2026-04-29 19:26 53.30390 -113.58115 2388 ft 0 kts 45°